Ely, NV

4:02 AM PDT on April 24, 2018 (GMT -0700)
Ely

Weather History for KELY - May, 2013

Change the Weather History Date:

Thursday, May 16, 2013

  Actual Average Record
Temperature  
Mean Temperature 57 °F 51 °F  
Max Temperature 74 °F 68 °F 83 °F (1901)
Min Temperature 39 °F 34 °F 18 °F (1999)
Degree Days  
Heating Degree Days 8 14  
Month to date heating degree days 223 261  
Since 1 July heating degree days 6858 7164  
Cooling Degree Days 0 0  
Month to date cooling degree days 0 0  
Year to date cooling degree days 0 0  
Growing Degree Days 6 (Base 50)    
Moisture  
Dew Point 23 °F    
Average Humidity 30    
Maximum Humidity 48    
Minimum Humidity 12    
Precipitation  
Precipitation T in 0.03 in 0.89 in (2005)
Month to date precipitation 0.04 0.55  
Year to date precipitation 2.60 3.88  
Snow  
Snow 0.00 in 0.10 in 6.10 in (1977)
Month to date snowfall 0.0 1.7  
Since 1 July snowfall 65.0 50.1  
Snow Depth 0.00 in    
Sea Level Pressure  
Sea Level Pressure 29.72 in    
Wind  
Wind Speed 9 mph (SW)    
Max Wind Speed 29 mph    
Max Gust Speed 38 mph    
Visibility 9 miles    
Events Rain    
T = Trace of Precipitation, MM = Missing Value Source: NWS Daily Summary

Daily Weather History Graph

Daily Weather History Graph

Search for Another Location

Airport or City:

Astronomy

May. 16, 2013 Rise Set
Actual Time 5:24 AM PDT 7:47 PM PDT
Civil Twilight 4:54 AM PDT 8:17 PM PDT
Nautical Twilight 4:16 AM PDT 8:55 PM PDT
Astronomical Twilight 3:35 AM PDT 9:36 PM PDT
Moon 11:01 AM PDT (5/16) 12:11 AM PDT (5/16)
Length of Visible Light 15h 23m
Length of Day
14h 22m
Waxing Crescent, 36% of the Moon is Illuminated
May 16
Waxing Crescent
May 17
First Quarter
May 24
Full
May 31
Last Quarter
Jun 8
New

Hourly Weather History & Observations

Time (PDT) Temp. Windchill Dew Point Humidity Pressure Visibility Wind Dir Wind Speed Gust Speed Precip Events Conditions
12:53 AM 48.0 °F - 21.9 °F 36% 29.76 in 8.0 mi South 6.9 mph - N/A   Overcast
1:53 AM 45.0 °F 40.1 °F 18.0 °F 34% 29.77 in 6.0 mi SSE 9.2 mph - N/A   Haze
2:53 AM 44.1 °F - 19.9 °F 38% 29.76 in 6.0 mi Calm Calm - N/A   Haze
3:53 AM 44.1 °F - 19.9 °F 38% 29.75 in 6.0 mi Calm Calm - N/A   Haze
4:53 AM 41.0 °F 34.7 °F 21.9 °F 47% 29.77 in 7.0 mi South 10.4 mph - N/A   Clear
5:53 AM 39.9 °F 32.5 °F 21.9 °F 49% 29.79 in 7.0 mi South 12.7 mph - N/A   Clear
6:53 AM 46.9 °F - 25.0 °F 42% 29.78 in 6.0 mi South 11.5 mph - N/A   Haze
7:53 AM 57.0 °F - 24.1 °F 28% 29.73 in 6.0 mi South 5.8 mph - N/A   Haze
8:53 AM 60.1 °F - 21.9 °F 23% 29.73 in 7.0 mi South 5.8 mph - N/A   Scattered Clouds
9:53 AM 64.9 °F - 19.9 °F 18% 29.72 in 10.0 mi Calm Calm - N/A   Clear
10:53 AM 68.0 °F - 15.1 °F 13% 29.70 in 10.0 mi SSW 6.9 mph - N/A   Partly Cloudy
11:53 AM 71.1 °F - 15.1 °F 12% 29.67 in 10.0 mi SSW 13.8 mph - N/A   Clear
12:53 PM 70.0 °F - 15.1 °F 12% 29.69 in 10.0 mi SSW 16.1 mph 24.2 mph N/A   Mostly Cloudy
1:53 PM 72.0 °F - 19.0 °F 13% 29.66 in 10.0 mi West 12.7 mph 26.5 mph N/A   Scattered Clouds
3:53 PM 72.0 °F - 18.0 °F 13% 29.64 in 10.0 mi SW 9.2 mph 25.3 mph N/A   Mostly Cloudy
4:25 PM 69.8 °F - 19.4 °F 15% 29.87 in 10.0 mi SW 18.4 mph 31.1 mph N/A   Overcast
4:53 PM 69.1 °F - 19.9 °F 15% 29.66 in 10.0 mi WSW 8.1 mph - N/A   Mostly Cloudy
5:53 PM 68.0 °F - 21.9 °F 17% 29.67 in 10.0 mi West 15.0 mph 18.4 mph N/A   Overcast
6:10 PM 66.2 °F - 24.8 °F 21% 29.86 in 10.0 mi WNW 11.5 mph - N/A   Overcast
6:53 PM 63.0 °F - 28.9 °F 28% 29.68 in 10.0 mi NW 15.0 mph - N/A   Overcast
7:53 PM 60.1 °F - 30.9 °F 33% 29.67 in 10.0 mi North 10.4 mph - N/A   Overcast
8:38 PM 57.2 °F - 32.0 °F 38% 29.93 in 10.0 mi SSW 8.1 mph 23.0 mph 0.00 in Rain Light Rain
8:53 PM 57.9 °F - 30.9 °F 36% 29.69 in 10.0 mi WSW 11.5 mph - 0.00 in   Overcast
9:53 PM 55.9 °F - 30.9 °F 39% 29.68 in 10.0 mi Calm Calm - N/A   Overcast
10:53 PM 57.0 °F - 30.9 °F 37% 29.65 in 10.0 mi WSW 6.9 mph - N/A   Overcast
11:53 PM 54.0 °F - 32.0 °F 43% 29.66 in 10.0 mi WNW 5.8 mph - N/A   Overcast